New Haven, CT

5:38 PM EDT on August 24, 2016 (GMT -0400)
Tweed-New Haven

Weather History for KHVN - August, 2013

Change the Weather History Date:

Friday, August 23, 2013

  Actual Average Record
Temperature  
Mean Temperature 74 °F -  
Max Temperature 82 °F 77 °F 90 °F (1976)
Min Temperature 64 °F 62 °F 53 °F (2016)
Cooling Degree Days 9    
Growing Degree Days 24 (Base 50)    
Moisture  
Dew Point 62 °F    
Average Humidity 69    
Maximum Humidity 94    
Minimum Humidity 38    
Precipitation  
Precipitation 0.00 in - - ()
Sea Level Pressure  
Sea Level Pressure 29.95 in    
Wind  
Wind Speed 3 mph (North)    
Max Wind Speed 14 mph    
Max Gust Speed 20 mph    
Visibility 10 miles    
Events      
Averages and records for this station are not official NWS values.
T = Trace of Precipitation, MM = Missing Value Source: NWS Daily Summary

Daily Weather History Graph

Daily Weather History Graph

Search for Another Location

Airport or City:

Trip Planner

Search our weather history database for the weather conditions in past years. The results will help you decide how hot, cold, wet, or windy it might be!

Date:

Astronomy

Aug. 23, 2013 Rise Set
Actual Time 6:09 AM EDT 7:38 PM EDT
Civil Twilight 5:40 AM EDT 8:07 PM EDT
Nautical Twilight 5:05 AM EDT 8:42 PM EDT
Astronomical Twilight 4:28 AM EDT 9:18 PM EDT
Moon 8:52 PM EDT (8/23) 9:03 AM EDT (8/23)
Length of Visible Light 14h 27m
Length of Day
13h 29m
Waning Gibbous, 91% of the Moon is Illuminated
Aug 23
Waning Gibbous
Aug 28
Last Quarter
Sep 5
New
Sep 12
First Quarter
Sep 19
Full

Hourly Weather History & Observations

Time (EDT) Temp. Heat Index Dew Point Humidity Pressure Visibility Wind Dir Wind Speed Gust Speed Precip Events Conditions
12:33 AM 71.6 °F - 69.8 °F 94% 29.87 in 10.0 mi Calm Calm - N/A   Mostly Cloudy
12:53 AM 72.0 °F - 69.1 °F 91% 29.87 in 10.0 mi Calm Calm - N/A   Mostly Cloudy
1:14 AM 71.6 °F - 68.0 °F 88% 29.87 in 8.0 mi Calm Calm - N/A   Scattered Clouds
1:29 AM 71.6 °F - 69.8 °F 94% 29.86 in 8.0 mi Calm Calm - N/A   Mostly Cloudy
1:45 AM 71.6 °F - 69.8 °F 94% 29.86 in 7.0 mi Calm Calm - N/A   Scattered Clouds
1:53 AM 72.0 °F - 69.1 °F 91% 29.86 in 7.0 mi Calm Calm - N/A   Partly Cloudy
2:53 AM 72.0 °F - 69.1 °F 91% 29.86 in 6.0 mi Calm Calm - N/A   Scattered Clouds
3:53 AM 72.0 °F - 68.0 °F 87% 29.86 in 10.0 mi NNW 4.6 mph - N/A   Overcast
4:53 AM 72.0 °F - 64.9 °F 78% 29.86 in 10.0 mi North 4.6 mph - N/A   Overcast
5:53 AM 71.1 °F - 63.0 °F 75% 29.89 in 10.0 mi NW 5.8 mph - N/A   Clear
6:53 AM 70.0 °F - 63.0 °F 78% 29.91 in 10.0 mi NNW 6.9 mph 17.3 mph N/A   Scattered Clouds
7:53 AM 71.1 °F - 63.0 °F 75% 29.94 in 10.0 mi NNW 9.2 mph - N/A   Mostly Cloudy
8:53 AM 73.9 °F - 62.1 °F 66% 29.95 in 10.0 mi North 9.2 mph - N/A   Mostly Cloudy
9:53 AM 77.0 °F - 60.1 °F 56% 29.96 in 10.0 mi North 9.2 mph 19.6 mph N/A   Mostly Cloudy
10:53 AM 78.1 °F - 57.9 °F 50% 29.96 in 10.0 mi North 13.8 mph 17.3 mph N/A   Mostly Cloudy
11:53 AM 79.0 °F - 57.0 °F 47% 29.96 in 10.0 mi North 6.9 mph - N/A   Mostly Cloudy
12:53 PM 81.0 °F 80.8 °F 55.9 °F 42% 29.96 in 10.0 mi North 9.2 mph - N/A   Mostly Cloudy
1:53 PM 81.0 °F 80.5 °F 54.0 °F 39% 29.96 in 10.0 mi North 6.9 mph - N/A   Mostly Cloudy
2:53 PM 82.0 °F 81.3 °F 54.0 °F 38% 29.97 in 10.0 mi NNE 9.2 mph - N/A   Mostly Cloudy
3:53 PM 81.0 °F 80.4 °F 53.1 °F 38% 29.98 in 10.0 mi NNE 5.8 mph - N/A   Overcast
4:53 PM 78.1 °F - 57.0 °F 48% 29.98 in 10.0 mi Variable 3.5 mph - N/A   Mostly Cloudy
5:53 PM 75.9 °F - 61.0 °F 60% 29.99 in 10.0 mi Variable 3.5 mph - N/A   Clear
6:53 PM 77.0 °F - 55.0 °F 47% 30.00 in 10.0 mi NNE 5.8 mph - N/A   Mostly Cloudy
7:53 PM 73.9 °F - 55.9 °F 53% 30.02 in 10.0 mi North 5.8 mph - N/A   Mostly Cloudy
8:53 PM 71.1 °F - 55.9 °F 59% 30.06 in 10.0 mi ENE 5.8 mph - N/A   Partly Cloudy
9:53 PM 69.1 °F - 60.1 °F 73% 30.08 in 10.0 mi Calm Calm - N/A   Partly Cloudy
10:53 PM 66.0 °F - 60.1 °F 81% 30.09 in 10.0 mi ENE 4.6 mph - N/A   Clear
11:53 PM 64.0 °F - 60.1 °F 87% 30.12 in 10.0 mi Calm Calm - N/A   Clear